TimeEDT,TemperatureF,Dew PointF,Humidity,Sea Level PressureIn,VisibilityMPH,Wind Direction,Wind SpeedMPH,Gust SpeedMPH,PrecipitationIn,Events,Conditions,WindDirDegrees,DateUTC
12:15 AM,64.0,64.0,100,30.07,7.0,Calm,Calm,-,N/A,,Clear,0,2013-10-16 04:15:00
12:35 AM,63.3,63.3,100,30.08,4.0,North,3.5,-,N/A,,Clear,350,2013-10-16 04:35:00
12:55 AM,63.1,63.1,100,30.07,7.0,Calm,Calm,-,N/A,,Clear,0,2013-10-16 04:55:00
1:15 AM,62.8,62.8,100,30.07,7.0,Calm,Calm,-,N/A,,Clear,0,2013-10-16 05:15:00
1:35 AM,63.0,63.0,100,30.06,7.0,Calm,Calm,-,N/A,,Clear,0,2013-10-16 05:35:00
1:55 AM,61.9,61.9,100,30.06,1.2,Calm,Calm,-,N/A,,Mist,0,2013-10-16 05:55:00
2:15 AM,62.2,62.2,100,30.06,7.0,Calm,Calm,-,N/A,,Clear,0,2013-10-16 06:15:00
2:35 AM,61.0,61.0,100,30.06,0.5,Calm,Calm,-,N/A,Fog,Fog,0,2013-10-16 06:35:00
2:55 AM,60.4,60.4,100,30.06,0.5,Calm,Calm,-,N/A,Fog,Fog,0,2013-10-16 06:55:00
3:15 AM,60.4,60.4,100,30.05,2.0,Calm,Calm,-,N/A,,Clear,0,2013-10-16 07:15:00
3:35 AM,59.9,59.9,100,30.04,1.2,Calm,Calm,-,N/A,,Scattered Clouds,0,2013-10-16 07:35:00
3:55 AM,59.9,59.9,100,30.04,0.8,Calm,Calm,-,N/A,,Mostly Cloudy,0,2013-10-16 07:55:00
4:15 AM,59.9,59.9,100,30.03,0.5,Calm,Calm,-,N/A,Fog,Fog,0,2013-10-16 08:15:00
4:35 AM,59.7,59.7,100,30.03,1.5,Calm,Calm,-,N/A,,Mist,0,2013-10-16 08:35:00
4:55 AM,60.8,60.8,100,30.04,3.0,Calm,Calm,-,N/A,,Clear,0,2013-10-16 08:55:00
5:15 AM,60.4,60.4,100,30.04,1.2,Calm,Calm,-,N/A,,Mist,0,2013-10-16 09:15:00
5:35 AM,59.9,59.9,100,30.04,0.2,Calm,Calm,-,N/A,Fog,Fog,0,2013-10-16 09:35:00
5:55 AM,59.0,59.0,100,30.04,0.5,Calm,Calm,-,N/A,Fog,Fog,0,2013-10-16 09:55:00
6:15 AM,58.8,58.8,100,30.05,0.8,Calm,Calm,-,N/A,,Mist,0,2013-10-16 10:15:00
6:35 AM,58.6,58.6,100,30.05,0.5,Calm,Calm,-,N/A,Fog,Fog,0,2013-10-16 10:35:00
6:55 AM,58.5,58.5,100,30.05,0.2,Calm,Calm,-,N/A,Fog,Fog,0,2013-10-16 10:55:00
7:15 AM,58.3,58.3,100,30.05,0.5,Calm,Calm,-,N/A,Fog,Fog,0,2013-10-16 11:15:00
7:35 AM,57.6,57.6,100,30.05,0.2,Calm,Calm,-,N/A,Fog,Fog,0,2013-10-16 11:35:00
7:55 AM,58.6,58.6,100,30.05,0.2,Calm,Calm,-,N/A,Fog,Fog,0,2013-10-16 11:55:00
8:15 AM,58.5,58.5,100,30.05,0.5,Calm,Calm,-,N/A,Fog,Fog,0,2013-10-16 12:15:00
8:35 AM,60.4,60.4,100,30.06,3.0,Calm,Calm,-,N/A,,Clear,0,2013-10-16 12:35:00
8:55 AM,62.2,62.2,100,30.06,10.0,Calm,Calm,-,N/A,,Clear,0,2013-10-16 12:55:00
9:15 AM,64.6,64.6,100,30.07,10.0,Calm,Calm,-,N/A,,Clear,0,2013-10-16 13:15:00
9:35 AM,68.0,63.5,85,30.06,10.0,ESE,3.5,-,N/A,,Clear,110,2013-10-16 13:35:00
9:55 AM,70.2,63.7,80,30.07,10.0,Calm,Calm,-,N/A,,Clear,0,2013-10-16 13:55:00
10:15 AM,72.3,63.7,74,30.08,10.0,Calm,Calm,-,N/A,,Clear,0,2013-10-16 14:15:00
10:35 AM,74.1,63.5,69,30.08,10.0,Calm,Calm,-,N/A,,Clear,0,2013-10-16 14:35:00
10:55 AM,75.9,63.5,65,30.08,10.0,Calm,Calm,-,N/A,,Clear,0,2013-10-16 14:55:00
11:15 AM,76.5,63.7,64,30.08,10.0,Calm,Calm,-,N/A,,Clear,0,2013-10-16 15:15:00
11:35 AM,77.2,64.4,65,30.09,10.0,Calm,Calm,-,N/A,,Clear,0,2013-10-16 15:35:00
11:55 AM,77.4,63.5,62,30.08,10.0,North,3.5,-,N/A,,Clear,10,2013-10-16 15:55:00
12:15 PM,78.8,63.9,60,30.07,10.0,ENE,3.5,-,N/A,,Clear,70,2013-10-16 16:15:00
12:35 PM,78.8,63.0,58,30.07,10.0,West,3.5,-,N/A,,Clear,270,2013-10-16 16:35:00
12:55 PM,80.6,62.2,53,30.06,10.0,Calm,Calm,-,N/A,,Clear,0,2013-10-16 16:55:00
1:15 PM,81.5,63.0,53,30.04,10.0,NW,3.5,-,N/A,,Clear,320,2013-10-16 17:15:00
1:35 PM,81.1,63.1,54,30.03,10.0,NW,3.5,-,N/A,,Clear,320,2013-10-16 17:35:00
1:55 PM,81.5,63.3,54,30.02,10.0,West,4.6,-,N/A,,Clear,280,2013-10-16 17:55:00
2:15 PM,81.9,61.9,51,30.02,10.0,Calm,Calm,-,N/A,,Clear,0,2013-10-16 18:15:00
2:35 PM,82.8,61.9,49,30.01,10.0,North,4.6,-,N/A,,Clear,360,2013-10-16 18:35:00
2:55 PM,83.5,62.4,49,30.00,10.0,NNW,3.5,-,N/A,,Clear,340,2013-10-16 18:55:00
3:15 PM,84.0,62.4,48,29.99,10.0,NNE,4.6,-,N/A,,Clear,30,2013-10-16 19:15:00
3:35 PM,83.5,62.6,49,29.99,10.0,North,4.6,-,N/A,,Clear,360,2013-10-16 19:35:00
3:55 PM,82.6,62.4,50,29.99,10.0,Calm,Calm,-,N/A,,Clear,0,2013-10-16 19:55:00
4:15 PM,82.0,62.8,52,29.99,10.0,Calm,Calm,-,N/A,,Clear,0,2013-10-16 20:15:00
4:35 PM,82.2,62.8,52,29.98,10.0,Calm,Calm,-,N/A,,Clear,0,2013-10-16 20:35:00
4:55 PM,84.0,63.1,49,29.98,10.0,Calm,Calm,-,N/A,,Clear,0,2013-10-16 20:55:00
5:15 PM,83.5,62.8,50,29.98,10.0,Calm,Calm,-,N/A,,Clear,0,2013-10-16 21:15:00
5:35 PM,81.9,63.9,54,29.98,10.0,Calm,Calm,-,N/A,,Scattered Clouds,0,2013-10-16 21:35:00
5:55 PM,81.0,65.3,59,29.98,10.0,Calm,Calm,-,N/A,,Mostly Cloudy,0,2013-10-16 21:55:00
6:15 PM,80.8,66.4,61,29.98,10.0,Calm,Calm,-,N/A,,Overcast,0,2013-10-16 22:15:00
6:35 PM,80.4,67.3,64,29.99,10.0,Calm,Calm,-,N/A,,Overcast,0,2013-10-16 22:35:00
6:55 PM,76.6,68.9,77,29.99,10.0,Calm,Calm,-,N/A,,Mostly Cloudy,0,2013-10-16 22:55:00
7:15 PM,75.7,66.9,74,29.99,10.0,Calm,Calm,-,N/A,,Scattered Clouds,0,2013-10-16 23:15:00
7:35 PM,72.0,67.1,85,29.99,10.0,Calm,Calm,-,N/A,,Scattered Clouds,0,2013-10-16 23:35:00
7:55 PM,71.4,68.0,89,30.00,10.0,Calm,Calm,-,N/A,,Scattered Clouds,0,2013-10-16 23:55:00
8:15 PM,70.7,68.4,92,30.00,10.0,Calm,Calm,-,N/A,,Scattered Clouds,0,2013-10-17 00:15:00
8:35 PM,68.7,68.2,98,30.01,10.0,Calm,Calm,-,N/A,,Clear,0,2013-10-17 00:35:00
8:55 PM,68.5,68.2,99,30.01,10.0,Calm,Calm,-,N/A,,Clear,0,2013-10-17 00:55:00
9:15 PM,67.8,66.7,96,30.02,10.0,Calm,Calm,-,N/A,,Clear,0,2013-10-17 01:15:00
9:35 PM,67.1,66.9,99,30.02,7.0,Calm,Calm,-,N/A,,Clear,0,2013-10-17 01:35:00
9:55 PM,67.3,67.3,100,30.02,10.0,Calm,Calm,-,N/A,,Clear,0,2013-10-17 01:55:00
10:15 PM,66.4,66.4,100,30.02,1.0,Calm,Calm,-,N/A,,Mist,0,2013-10-17 02:15:00
10:35 PM,65.8,65.8,100,30.03,7.0,Calm,Calm,-,N/A,,Clear,0,2013-10-17 02:35:00
10:55 PM,66.6,66.6,100,30.02,10.0,Calm,Calm,-,N/A,,Clear,0,2013-10-17 02:55:00
11:15 PM,66.4,66.4,100,30.02,7.0,Calm,Calm,-,N/A,,Clear,0,2013-10-17 03:15:00
11:35 PM,64.4,64.4,100,30.02,2.5,Calm,Calm,-,N/A,,Clear,0,2013-10-17 03:35:00
11:55 PM,64.8,64.8,100,30.02,0.8,Calm,Calm,-,N/A,,Mist,0,2013-10-17 03:55:00